sat.trackr.live / text

‹ back to catalog

STARLINK-6185

NORAD 56901 · 2023-083AB

PAYLOAD ACTIVE UNKNOWN

§ Identity

Operator
Country
US
Launch date
2023-06-12
Launch site
AFETR
Launch vehicle
Mass (kg)
RCS (m²)

Purposes: comms

External: N2YO · Heavens-Above · Gunter

§ Orbital elements

Epoch: 2026-09-19T18:56:53.646720Z

Period
94.27 min
Inclination
43.0044°
Eccentricity
0.0002276
Mean motion
15.27574880 rev/d
Perigee alt
481.5 km
Apogee alt
484.6 km
Semi-major
6,861.2 km
B*
7.2014e-6
RAAN
65.7611°
Arg perigee
268.7339°
Mean anomaly
91.3252°
Rev number
18,146

§ Raw data

STARLINK-61851 56901U 23083AB  26262.78950980 -.00000064  00000+0  72014-5 0  99902 56901  43.0044  65.7611 0002276 268.7339  91.3252 15.27574880181468

JSON: /api/v1/satellites/56901 · /tle

For live sub-satellite position, see the globe view (requires WebGL).

§ Visibility from observer

Set your observer location to see the next 7 days of passes ≥ 10°. The values pass through the URL so the page stays shareable.

No JS? Fill the form by hand. The geolocation button needs JavaScript.